If you wish to contribute or participate in the discussions about articles you are invited to join SKYbrary as a registered user

 Actions

Armilla Airport

From SKYbrary Wiki

LEGA
Airport
ICAO: LEGA
Summary
Name Armilla Airport
Region Europe
Territory Spain ES.gif
Location , Andalucia
Serving Granada
Elevation 700.126 m
2,297 ft
2,297 ft700.126 m
Type medium airport
Coordinates 37° 7' 59.60" N, 3° 38' 8.50" W
Runways
Designator Length Width Surface ROPS
18/36 1300 m4,265.092 ft
30 m98.425 ft
ASP /


METAR
Observation LEGA 260800Z 31004KT 260V010 CAVOK 24/14 Q1019
Station Granada / Armilla
Date/Time 26 June 2019 08:00:00
Wind direction 310°
Wind speed 04 kts
Lowest cloud amount clouds and visibility OK
Temperature 24°C
Dew point 14°C
Humidity 53%
QNH 1019 hPa
Weather condition n/a